Home   Weather   Niamey   Past weeks

Flag for Niger Past Weather in Niamey, Niger — Yesterday and Last 2 Weeks

Now
106 °F

Passing clouds.


Feels Like: 101 °F
Forecast: 82 / 111 °F
Wind: 5 mph from Southwest

Location: Niamey-Aero

Current Time: Apr 23, 2017 at 7:06:47 pm

Latest Report: Apr 23, 2017 at 6:00 pm


Visibility: 4 mi

Pressure: 29.68 "Hg

Humidity: 12%

Dew Point: 43 °F

Location of NiameyLocation

Past Weather in Niamey — Graph

°F

Niamey Temperature Yesterday

Maximum temperature yesterday: 108 °F (at 3:00 pm)
Minimum temperature yesterday: 86 °F (at 5:00 am)
Average temperature yesterday: 96 °F

High & Low Weather Summary for the Past Weeks

 TemperatureHumidityPressure
High109 °F (Apr 9, 3:00 pm)46% (Apr 22, 7:00 am)29.95 "Hg (Apr 22, 7:00 am)
Low77 °F (Apr 18, 6:00 am)3% (Apr 12, 1:00 pm)29.65 "Hg (Apr 11, 4:00 pm)
Average95 °F11%29.76 "Hg
* Reported Apr 8 4:00 pm — Apr 23 4:00 pm, Niamey, Weather by CustomWeather, © 2017

Note: Actual official high and low records may vary slightly from our data, if they occured in-between our weather recording intervals... More about our weather records

Advertising

Niamey Weather History for the Previous 24 Hours

Scroll right to see more
 ConditionsComfort  
Time TempWeatherWind HumidityBarometerVisibility
4:00 pm
Sun, Apr 23
108 °FPassing clouds.3 mph12%29.71 "Hg4 mi
3:00 pm108 °FScattered clouds.6 mph13%29.74 "Hg4 mi
2:00 pm108 °FPassing clouds.6 mph14%29.77 "Hg5 mi
1:00 pm104 °FPassing clouds.10 mph17%29.80 "Hg4 mi
12:00 pm102 °FPassing clouds.12 mph23%29.83 "Hg4 mi
11:00 am100 °FClear.15 mph25%29.86 "Hg4 mi
10:00 am97 °FLow level haze.16 mph28%29.86 "Hg3 mi
9:00 am93 °FClear.14 mph32%29.86 "Hg5 mi
7:00 am88 °FClear.6 mph35%29.80 "Hg4 mi
6:00 am86 °FDuststorm.5 mph38%29.77 "Hg3 mi
5:00 am88 °FDuststorm.6 mph31%29.77 "Hg3 mi
4:00 am88 °FDuststorm.3 mph31%29.77 "Hg3 mi
3:00 am90 °FDuststorm.1 mph27%29.77 "Hg3 mi
2:00 am91 °FDuststorm.1 mph23%29.77 "Hg3 mi
1:00 am91 °FDuststorm.7 mph23%29.77 "Hg3 mi
12:00 am91 °FDuststorm.1 mph18%29.80 "Hg3 mi
11:00 pm
Sat, Apr 22
95 °FDuststorm.1 mph15%29.80 "Hg3 mi
10:00 pm95 °FDuststorm.2 mph15%29.77 "Hg3 mi
9:00 pm97 °FDuststorm.2 mph14%29.74 "Hg3 mi
7:00 pm104 °FClear.3 mph11%29.71 "Hg4 mi
Weather by CustomWeather, © 2017

See weather overviewHow to use our weather pages